North Clarendon, VT

10:53 AM EDT on September 27, 2016 (GMT -0400)
Rutland State

Weather History for KRUT - September, 2011

Change the Weather History Date:

Sunday, September 18, 2011

  Actual Average Record
Temperature  
Mean Temperature 54 °F -  
Max Temperature 64 °F - 84 °F (1948)
Min Temperature 43 °F - 27 °F (1990)
Degree Days  
Heating Degree Days 11    
Month to date heating degree days 85  
Since 1 July heating degree days 101  
Cooling Degree Days 0    
Month to date cooling degree days 31  
Year to date cooling degree days 332  
Growing Degree Days 4 (Base 50)    
Moisture  
Dew Point 41 °F    
Average Humidity 66    
Maximum Humidity 92    
Minimum Humidity 40    
Precipitation  
Precipitation 0.00 in - 9.81 in (2002)
Month to date precipitation 2.08  
Year to date precipitation 25.39  
Sea Level Pressure  
Sea Level Pressure 30.46 in    
Wind  
Wind Speed 7 mph (SE)    
Max Wind Speed 12 mph    
Max Gust Speed 16 mph    
Visibility 10 miles    
Events      
T = Trace of Precipitation, MM = Missing Value Source: NWS Daily Summary

Daily Weather History Graph

Daily Weather History Graph

Search for Another Location

Airport or City:

Trip Planner

Search our weather history database for the weather conditions in past years. The results will help you decide how hot, cold, wet, or windy it might be!

Date:

Astronomy

Sep. 18, 2011 Rise Set
Actual Time 6:34 AM EDT 6:57 PM EDT
Civil Twilight 6:05 AM EDT 7:25 PM EDT
Nautical Twilight 5:31 AM EDT 7:59 PM EDT
Astronomical Twilight 4:56 AM EDT 8:34 PM EDT
Moon 9:57 PM EDT (9/18) 12:41 PM EDT (9/18)
Length of Visible Light 13h 20m
Length of Day
12h 22m
Waning Gibbous, 68% of the Moon is Illuminated
Sep 18
Waning Gibbous
Sep 20
Last Quarter
Sep 27
New
Oct 3
First Quarter
Oct 11
Full

Hourly Weather History & Observations

Time (EDT) Temp. Windchill Dew Point Humidity Pressure Visibility Wind Dir Wind Speed Gust Speed Precip Events Conditions
12:15 AM 46.4 °F 44.3 °F 42.8 °F 87% 30.48 in 10.0 mi South 4.6 mph - N/A   Clear
12:35 AM 46.4 °F 42.4 °F 42.8 °F 87% 30.48 in 10.0 mi SE 8.1 mph - N/A   Clear
12:55 AM 46.4 °F 43.5 °F 42.8 °F 87% 30.48 in 10.0 mi SE 5.8 mph - N/A   Clear
1:15 AM 46.4 °F 44.3 °F 42.8 °F 87% 30.48 in 10.0 mi SSE 4.6 mph - N/A   Clear
1:35 AM 46.4 °F 42.9 °F 42.8 °F 87% 30.48 in 10.0 mi SE 6.9 mph - N/A   Clear
2:15 AM 46.4 °F 44.3 °F 42.8 °F 87% 30.47 in 10.0 mi SSE 4.6 mph - N/A   Clear
2:35 AM 46.4 °F - 42.8 °F 87% 30.47 in 10.0 mi Calm Calm - N/A   Clear
2:55 AM 46.4 °F 43.5 °F 42.8 °F 87% 30.47 in 10.0 mi SE 5.8 mph - N/A   Clear
3:15 AM 46.4 °F 43.5 °F 42.8 °F 87% 30.47 in 10.0 mi East 5.8 mph - N/A   Clear
3:35 AM 46.4 °F 44.3 °F 42.8 °F 87% 30.47 in 10.0 mi SE 4.6 mph - N/A   Clear
3:55 AM 46.4 °F - 42.8 °F 87% 30.47 in 10.0 mi Calm Calm - N/A   Clear
4:15 AM 46.4 °F 45.2 °F 42.8 °F 87% 30.47 in 10.0 mi SSE 3.5 mph - N/A   Clear
4:35 AM 46.4 °F - 42.8 °F 87% 30.47 in 10.0 mi Calm Calm - N/A   Clear
4:55 AM 44.6 °F 43.1 °F 42.8 °F 93% 30.47 in 10.0 mi SSE 3.5 mph - N/A   Clear
5:15 AM 44.6 °F - 42.8 °F 93% 30.48 in 10.0 mi Calm Calm - N/A   Clear
5:35 AM 44.6 °F 43.1 °F 41.0 °F 87% 30.48 in 10.0 mi SSE 3.5 mph - N/A   Clear
5:55 AM 44.6 °F 42.2 °F 42.8 °F 93% 30.48 in 10.0 mi SE 4.6 mph - N/A   Clear
6:15 AM 44.6 °F 43.1 °F 41.0 °F 87% 30.49 in 10.0 mi South 3.5 mph - N/A   Clear
6:35 AM 44.6 °F - 42.8 °F 93% 30.49 in 10.0 mi Calm Calm - N/A   Clear
6:55 AM 44.6 °F 42.2 °F 41.0 °F 87% 30.50 in 10.0 mi SSE 4.6 mph - N/A   Clear
7:35 AM 44.6 °F 43.1 °F 42.8 °F 93% 30.51 in 10.0 mi SSE 3.5 mph - N/A   Clear
7:55 AM 46.4 °F - 42.8 °F 87% 30.51 in 10.0 mi Calm Calm - N/A   Clear
8:15 AM 48.2 °F - 42.8 °F 82% 30.50 in 10.0 mi SE 3.5 mph - N/A   Clear
8:35 AM 50.0 °F - 42.8 °F 76% 30.50 in 10.0 mi Calm Calm - N/A   Clear
8:55 AM 51.8 °F - 42.8 °F 71% 30.50 in 10.0 mi Calm Calm - N/A   Clear
9:15 AM 53.6 °F - 42.8 °F 67% 30.51 in 10.0 mi Calm Calm - N/A   Clear
9:35 AM 55.4 °F - 44.6 °F 67% 30.51 in 10.0 mi Calm Calm - N/A   Clear
10:15 AM 59.0 °F - 42.8 °F 55% 30.50 in 10.0 mi SE 6.9 mph - N/A   Clear
10:35 AM 60.8 °F - 41.0 °F 48% 30.50 in 10.0 mi SE 10.4 mph - N/A   Clear
10:55 AM 60.8 °F - 42.8 °F 52% 30.50 in 10.0 mi SSE 11.5 mph - N/A   Partly Cloudy
11:15 AM 60.8 °F - 39.2 °F 45% 30.49 in 10.0 mi South 11.5 mph - N/A   Mostly Cloudy
11:55 AM 60.8 °F - 39.2 °F 45% 30.49 in 10.0 mi South 10.4 mph - N/A   Overcast
12:15 PM 62.6 °F - 39.2 °F 42% 30.48 in 10.0 mi SE 8.1 mph 16.1 mph N/A   Overcast
12:35 PM 62.6 °F - 39.2 °F 42% 30.47 in 10.0 mi SSE 5.8 mph - N/A   Overcast
12:55 PM 62.6 °F - 39.2 °F 42% 30.47 in 10.0 mi South 9.2 mph - N/A   Overcast
1:15 PM 62.6 °F - 39.2 °F 42% 30.46 in 10.0 mi SE 8.1 mph - N/A   Mostly Cloudy
1:35 PM 62.6 °F - 39.2 °F 42% 30.45 in 10.0 mi ESE 9.2 mph - N/A   Mostly Cloudy
1:55 PM 62.6 °F - 39.2 °F 42% 30.44 in 10.0 mi East 9.2 mph - N/A   Mostly Cloudy
2:15 PM 62.6 °F - 39.2 °F 42% 30.43 in 10.0 mi East 8.1 mph - N/A   Mostly Cloudy
2:35 PM 62.6 °F - 39.2 °F 42% 30.42 in 10.0 mi ENE 4.6 mph - N/A   Mostly Cloudy
2:55 PM 64.4 °F - 39.2 °F 40% 30.42 in 10.0 mi SE 9.2 mph - N/A   Mostly Cloudy
3:15 PM 64.4 °F - 39.2 °F 40% 30.41 in 10.0 mi ENE 9.2 mph 19.6 mph N/A   Overcast
3:35 PM 62.6 °F - 39.2 °F 42% 30.41 in 10.0 mi NE 11.5 mph - N/A   Mostly Cloudy
3:55 PM 62.6 °F - 39.2 °F 42% 30.40 in 10.0 mi ENE 10.4 mph - N/A   Mostly Cloudy
4:15 PM 62.6 °F - 39.2 °F 42% 30.40 in 10.0 mi NE 12.7 mph - N/A   Partly Cloudy
4:35 PM 62.6 °F - 39.2 °F 42% 30.41 in 10.0 mi ESE 5.8 mph - N/A   Partly Cloudy
4:55 PM 62.6 °F - 39.2 °F 42% 30.40 in 10.0 mi East 11.5 mph 16.1 mph N/A   Scattered Clouds
5:15 PM 62.6 °F - 39.2 °F 42% 30.40 in 10.0 mi ESE 10.4 mph - N/A   Scattered Clouds
5:35 PM 60.8 °F - 39.2 °F 45% 30.40 in 10.0 mi ESE 5.8 mph - N/A   Clear
5:55 PM 60.8 °F - 41.0 °F 48% 30.40 in 10.0 mi East 6.9 mph - N/A   Mostly Cloudy
6:15 PM 60.8 °F - 41.0 °F 48% 30.40 in 10.0 mi East 4.6 mph - N/A   Partly Cloudy
6:35 PM 59.0 °F - 42.8 °F 55% 30.40 in 10.0 mi ESE 3.5 mph - N/A   Clear
7:15 PM 53.6 °F - 42.8 °F 67% 30.39 in 10.0 mi SE 8.1 mph - N/A   Clear
7:35 PM 53.6 °F - 42.8 °F 67% 30.40 in 10.0 mi SE 8.1 mph - N/A   Clear
7:55 PM 53.6 °F - 42.8 °F 67% 30.40 in 10.0 mi ESE 9.2 mph - N/A   Clear
8:15 PM 51.8 °F - 42.8 °F 71% 30.40 in 10.0 mi ESE 10.4 mph - N/A   Clear
8:35 PM 51.8 °F - 42.8 °F 71% 30.40 in 10.0 mi SE 10.4 mph - N/A   Clear
8:55 PM 50.0 °F - 42.8 °F 76% 30.40 in 10.0 mi SE 8.1 mph - N/A   Clear
9:15 PM 48.2 °F - 42.8 °F 82% 30.41 in 10.0 mi SE 8.1 mph - N/A   Clear
10:15 PM 48.2 °F - 41.0 °F 76% 30.40 in 10.0 mi SE 8.1 mph - N/A   Clear
10:35 PM 48.2 °F - 41.0 °F 76% 30.41 in 10.0 mi SE 6.9 mph - N/A   Clear
10:55 PM 48.2 °F - 41.0 °F 76% 30.41 in 10.0 mi ESE 6.9 mph - N/A   Clear
11:15 PM 46.4 °F 41.1 °F 41.0 °F 81% 30.41 in 10.0 mi ESE 11.5 mph - N/A   Clear
11:35 PM 46.4 °F 41.5 °F 39.2 °F 76% 30.41 in 10.0 mi ESE 10.4 mph - N/A   Clear
11:55 PM 46.4 °F 41.9 °F 39.2 °F 76% 30.40 in 10.0 mi ESE 9.2 mph - N/A   Clear